{"data":{"norad_id":53046,"epoch":"2026-09-18T17:24:36.148032Z","epoch_age_seconds":222750,"freshness":"STALE","line1":"1 53046U 22077D   26261.72541838 -.00001499  00000+0 -44121-4 0  9991","line2":"2 53046  97.2853  77.4504 0001458  92.9552 267.1858 15.33440015230087","mean_motion":15.33440015,"eccentricity":0.0001458,"inclination_deg":97.2853,"raan_deg":77.4504,"arg_perigee_deg":92.9552,"mean_anomaly_deg":267.1858,"bstar":-4.4121e-5,"rev_number":23008,"period_min":93.906509932832,"perigee_km":464.56019563914,"apogee_km":466.555817103,"semimajor_km":6843.6950063711,"source":"CELESTRAK","updated_at":"2026-09-20T09:00:40.150161Z"}}